{"data":{"norad_id":63803,"intl_designator":"2025-091AD","name":"STARLINK-33951","alt_names":[],"object_type":"PAYLOAD","status":"ACTIVE","operator":null,"country":"US","launch_date":"2025-05-02","launch_site_code":"AFETR","launch_vehicle":null,"mission":null,"orbit_class":"UNKNOWN","rcs_meters":null,"size_class":null,"mass_kg":null,"dimensions":null,"purposes":["comms"],"wikipedia_slug":null,"has_3d_model":false,"image_url":null,"decayed_at":null,"tle_current":{"epoch":"2026-05-24T20:33:13.970016Z","epoch_age_seconds":80704,"freshness":"FRESH","line1":"1 63803U 25091AD  26144.85641169  .00013975  00000+0  51634-3 0  9990","line2":"2 63803  43.0028 342.1366 0001778 267.9625  92.1023 15.27584548 60602","mean_motion":15.27584548,"eccentricity":0.0001778,"inclination_deg":43.0028,"raan_deg":342.1366,"arg_perigee_deg":267.9625,"mean_anomaly_deg":92.1023,"bstar":0.00051634,"rev_number":6060,"period_min":94.266468058042,"perigee_km":481.81556125877,"apogee_km":484.25539419184,"semimajor_km":6861.1724777253,"source":"CELESTRAK","updated_at":"2026-05-25T13:38:20.138744Z"}}}